{"data":{"norad_id":68582,"epoch":"2026-05-25T02:58:39.439776Z","epoch_age_seconds":64306,"freshness":"FRESH","line1":"1 68582U 26072K   26145.12406759  .00027313  00000+0  75508-3 0  9991","line2":"2 68582  51.8777 288.3593 0002414 264.7936  95.2775 15.36826594  7834","mean_motion":15.36826594,"eccentricity":0.0002414,"inclination_deg":51.8777,"raan_deg":288.3593,"arg_perigee_deg":264.7936,"mean_anomaly_deg":95.2775,"bstar":0.00075508,"rev_number":783,"period_min":93.699575841671,"perigee_km":453.85074309217,"apogee_km":457.15002322076,"semimajor_km":6833.6373831565,"source":"CELESTRAK","updated_at":"2026-05-25T13:38:07.949615Z"}}